TELKOM 3S (41944 NORAD) Tracking and Keplerian Element Data

This shows tracking and keplerian element data for the satellite.

Feedback or suggestion? Click here.




ElementValue
Catalog41944
NameTELKOM 3S
Epoch Orbit2680
Epoch Day160.16368802
Epoch Year2024
RAAN12.9695
Inclination0.0167
Eccentricity0.0002268
Argument of Perigee57.7312
Mean Anonmoly3.2542
Mean Motion1.00273557
Decay Rate-3.63E-06
L11 41944U 17007A 24160.16368802 -.00000363 00000+0 00000+0 0 9995
L22 41944 0.0167 12.9695 0002268 57.7312 3.2542 1.00273557 26805



Live tracking and technical data element details for TELKOM 3S (NORAD 41944). TELKOM 3S can be tracked NOW for your location showing map with azimuth and elevation plus other details from your city location.







IsCatalogInMostPopularTable: catalog: 41944, numindb: 637
Update: records affected: 1



GetName: 41944 TELKOM 3S

Hit Count: updated at: Sun, 23 Jun 2024 01:45:00 GMT